Location: Kampung Segan
(3.1399°N, 113.1002°E)
Time: 13:16:52
(UTC+00:00)

MOS 1-B Rocket - Pass Details

Date: 15 October 2025
Orbit: 891 x 1603 km, 99.0° (Epoch: 16 November)

Event Time Altitude Azimuth Distance (km) Brightness Sun altitude
Rises 20:23:43 0° 9° (N) 4,566 7.5 -27.5°
Reaches altitude 10° 20:26:26 10° 7° (N) 3,654 7.0 -26.9°
Maximum altitude 20:35:16 75° 284° (WNW) 1,638 4.9 -24.7°
Drops below altitude 10° 20:44:29 10° 199° (SSW) 3,805 6.9 -22.4°
Sets 20:47:23 0° 198° (SSW) 4,763 7.5 -21.7°
